Content
SEND FEEDBACK

Daily
Averages
Monthly
Summary
French Polynesia

PAPEETE, FRENCH POLYNESIA


Home > Oceania > French Polynesia
Elevation: 7 feet     Latitude: 17 33S     Longitude: 149 36W

WEATHER
 
SELECT A DAY
Number of Records: 214,666;   Date Range: 6/30/96 - 10/29/14
 
SHARE

PRINT THIS DATA

[ ← Previous Day ]
WEATHER ALMANAC - JULY 2, 2014
[ Next Day → ]
[ °C ]   °F
Weather ElementAverageHighLow
Temperature75.8 °F82.4 °F (11:00 am)68 °F (3:30 am)
Dewpoint66.5 °F68 °F (12:00 am)62.6 °F (12:00 am)
Humidity72.3 %88 % (8:00 pm)50 % (2:00 pm)
Barometer29.93 in29.98 in (12:30 am)29.89 in (3:30 pm)
Wind Speed3.9 mph11.5 mph (4:00 pm)
Weather ElementAverage
Visibility7.4 mi
Wind DirectionESE (97.3 °)

Weather ElementTotal
Precipitation---
Cooling Degree Days10.2 (Base 65)
Growing Degree Days25.2 (Base 50)
Averaged from 56 records on July 2, 2014
WEATHER CONDITIONS BREAKOUT
WIND DIRECTION BREAKOUT
WEATHER BY HOUR - JULY 2, 2014
[ °C ]   °F
Local TimeTemperatureDewpointHumidityBarometerVisibilityWind DirectionWind SpeedGust SpeedPrecipitationEventsConditions
12:00 AM71.6 °F66.2 °F83 %29.92 in6.2 miESE (110°)4.6 mphPartly Cloudy
12:30 AM71.6 °F66.2 °F83 %29.92 in6.2 miVariable2.3 mphPartly Cloudy
1:00 AM71.6 °F66.2 °F83 %29.92 in6.2 miSE (140°)2.3 mphPartly Cloudy
1:30 AM69.8 °F66.2 °F88 %29.92 in6.2 miCalmPartly Cloudy
2:00 AM70.0 °F66.0 °F83 %29.91 in12.0 miCalmScattered Clouds
2:00 AM69.8 °F66.2 °F88 %29.89 in6.2 miCalmPartly Cloudy
2:30 AM69.8 °F66.2 °F88 %29.89 in6.2 miCalmPartly Cloudy
3:00 AM69.8 °F64.4 °F83 %29.89 in6.2 miSouth (170°)2.3 mphPartly Cloudy
3:30 AM69.8 °F64.4 °F83 %29.89 in6.2 miCalm
4:00 AM68.0 °F64.4 °F88 %29.89 in6.2 miSouth (180°)3.5 mph
4:30 AM69.8 °F64.4 °F83 %29.89 in6.2 miSSE (160°)3.5 mph
5:00 AM69.0 °F64.0 °F77 %29.91 in37.0 miEast (100°)4.6 mphClear
5:00 AM69.8 °F64.4 °F83 %29.89 in6.2 miEast (100°)4.6 mphPartly Cloudy
5:30 AM69.8 °F64.4 °F83 %29.89 in6.2 miESE (110°)4.6 mphMostly Cloudy
6:00 AM69.8 °F64.4 °F83 %29.92 in6.2 miSSE (160°)2.3 mphPartly Cloudy
6:30 AM68.0 °F62.6 °F83 %29.92 in6.2 miCalmPartly Cloudy
7:00 AM69.8 °F64.4 °F83 %29.95 in6.2 miCalmPartly Cloudy
7:30 AM71.6 °F64.4 °F78 %29.95 in6.2 miCalmPartly Cloudy
8:00 AM75.0 °F66.0 °F67 %29.97 in12.0 miENE (70°)2.3 mphPartly Cloudy
8:00 AM75.2 °F66.2 °F73 %29.95 in6.2 miVariable2.3 mphPartly Cloudy
8:30 AM78.8 °F66.2 °F65 %29.98 in6.2 miNE (40°)4.6 mphPartly Cloudy
9:00 AM78.8 °F66.2 °F65 %29.98 in6.2 miNE (50°)6.9 mphPartly Cloudy
9:30 AM78.8 °F68.0 °F69 %29.98 in6.2 miNE (50°)4.6 mphPartly Cloudy
10:00 AM80.6 °F66.2 °F61 %29.98 in6.2 miVariable3.5 mphPartly Cloudy
10:30 AM80.6 °F66.2 °F61 %29.98 in6.2 miVariable2.3 mphPartly Cloudy
11:00 AM82.0 °F67.0 °F50 %29.97 in12.0 miNW (310°)3.5 mphScattered Clouds
11:00 AM82.4 °F66.2 °F58 %29.95 in6.2 miNW (310°)3.5 mphPartly Cloudy
11:30 AM82.4 °F68.0 °F62 %29.95 in6.2 miNW (310°)3.5 mphPartly Cloudy
12:00 PM82.4 °F68.0 °F62 %29.95 in6.2 miNNW (340°)4.6 mphMostly Cloudy
12:30 PM82.4 °F66.2 °F58 %29.92 in6.2 miNNW (330°)5.8 mphMostly Cloudy
1:00 PM82.4 °F66.2 °F58 %29.92 in6.2 miNNW (330°)8.1 mphMostly Cloudy
1:30 PM82.4 °F68.0 °F62 %29.92 in6.2 miWest (280°)9.2 mphMostly Cloudy
2:00 PM81.0 °F68.0 °F56 %29.91 in12.0 miSW (230°)5.8 mphMostly Cloudy
2:00 PM80.6 °F68.0 °F65 %29.89 in6.2 miSW (230°)5.8 mphMostly Cloudy
2:30 PM80.6 °F68.0 °F65 %29.89 in6.2 miSSW (200°)6.9 mphMostly Cloudy
3:00 PM80.6 °F68.0 °F65 %29.89 in6.2 miVariable1.2 mphMostly Cloudy
3:30 PM78.8 °F66.2 °F65 %29.89 in6.2 miNE (50°)9.2 mphMostly Cloudy
4:00 PM78.8 °F66.2 °F65 %29.89 in6.2 miENE (70°)8.1 mphMostly Cloudy
4:30 PM80.6 °F68.0 °F65 %29.89 in6.2 miENE (60°)9.2 mphMostly Cloudy
5:00 PM79.0 °F67.0 °F59 %29.92 in9.0 miNE (40°)11.5 mphMostly Cloudy
5:00 PM78.8 °F68.0 °F69 %29.92 in6.2 miNE (40°)11.5 mphMostly Cloudy
5:30 PM78.8 °F68.0 °F69 %29.92 in6.2 miNE (50°)9.2 mphMostly Cloudy
6:00 PM78.8 °F68.0 °F69 %29.92 in6.2 miNE (40°)8.1 mphMostly Cloudy
6:30 PM78.8 °F68.0 °F69 %29.92 in6.2 miNE (50°)4.6 mphMostly Cloudy
7:00 PM78.8 °F68.0 °F69 %29.95 in6.2 miVariable3.5 mphMostly Cloudy
7:30 PM77.0 °F68.0 °F74 %29.95 in6.2 miVariable2.3 mphMostly Cloudy
8:00 PM77.0 °F67.0 °F64 %29.97 in9.0 miSouth (180°)4.6 mphOvercast
8:00 PM77.0 °F68.0 °F74 %29.95 in6.2 miSouth (180°)4.6 mphMostly Cloudy
8:30 PM77.0 °F68.0 °F74 %29.95 in6.2 miVariable1.2 mphScattered Clouds
9:00 PM75.2 °F68.0 °F78 %29.98 in6.2 miSouth (170°)4.6 mphScattered Clouds
9:30 PM75.2 °F66.2 °F73 %29.98 in6.2 miVariable3.5 mphPartly Cloudy
10:00 PM75.2 °F66.2 °F73 %29.98 in6.2 miVariable2.3 mphPartly Cloudy
10:30 PM73.4 °F66.2 °F78 %29.95 in6.2 miCalmPartly Cloudy
11:00 PM73.0 °F67.0 °F76 %29.98 in12.0 miESE (110°)1.2 mphScattered Clouds
11:00 PM73.4 °F66.2 °F78 %29.98 in6.2 miCalmPartly Cloudy
11:30 PM73.4 °F68.0 °F83 %29.98 in6.2 miVariable2.3 mphPartly Cloudy
Hourly data recorded from NTAA, located miles away from Papeete, French Polynesia







STORIES FROM OUR PARTNERS